ENMS Weather Reports


time (UTC)temp
F
wind
direction
speed
knots
gust
knots
rain 1hr
in
rain 24hr
in
rain mn
in
humidity
%
barometer
mb
20260508090307 46 110 5.2 0.0 0.00 0.00 0.00 49 1022.0
20260508083307 44 170 4.3 0.0 0.00 0.00 0.00 56 1022.0
20260508073307 42 200 6.1 0.0 0.00 0.00 0.00 60 1023.0
20260508070306 41 180 4.3 0.0 0.00 0.00 0.00 75 1023.0
20260508063306 37 100 2.6 0.0 0.00 0.00 0.00 86 1023.0
20260508060306 35 0 1.7 0.0 0.00 0.00 0.00 93 1023.0
20260508053307 33 0 1.7 0.0 0.00 0.00 0.00 93 1023.0
20260508050306 32 150 2.6 0.0 0.00 0.00 0.00 92 1023.0
20260508043306 32 130 1.7 0.0 0.00 0.00 0.00 92 1022.0
20260508040307 30 0 1.7 0.0 0.00 0.00 0.00 92 1023.0
20260508030306 30 180 4.3 0.0 0.00 0.00 0.00 92 1022.0
20260508023307 30 0 1.7 0.0 0.00 0.00 0.00 92 1022.0
20260508020307 32 170 2.6 0.0 0.00 0.00 0.00 92 1022.0
20260508013307 32 210 2.6 0.0 0.00 0.00 0.00 92 1022.0
20260508010306 32 170 2.6 0.0 0.00 0.00 0.00 92 1022.0
20260508003306 32 0 0.9 0.0 0.00 0.00 0.00 92 1022.0
20260508000306 32 200 4.3 0.0 0.00 0.00 0.00 10 1021.0
20260507233306 32 0 1.7 0.0 0.00 0.00 0.00 92 1021.0
20260507230306 32 0 1.7 0.0 0.00 0.00 0.00 92 1021.0
20260507223306 33 0 0.9 0.0 0.00 0.00 0.00 93 1020.0
20260507220306 33 190 2.6 0.0 0.00 0.00 0.00 93 1020.0
20260507213306 35 160 2.6 0.0 0.00 0.00 0.00 86 1020.0
20260507210307 37 200 5.2 0.0 0.00 0.00 0.00 86 1020.0
20260507203307 35 180 5.2 0.0 0.00 0.00 0.00 93 1019.0
20260507200305 37 180 4.3 0.0 0.00 0.00 0.00 86 1019.0
20260507193307 37 150 2.6 0.0 0.00 0.00 0.00 86 1019.0
20260507190307 39 190 7.0 0.0 0.00 0.00 0.00 80 1018.0
20260507183307 41 220 6.1 0.0 0.00 0.00 0.00 75 1018.0
20260507180310 41 250 6.1 0.0 0.00 0.00 0.00 70 1018.0
20260507173308 44 250 5.2 0.0 0.00 0.00 0.00 56 1017.0
20260507170308 44 230 5.2 0.0 0.00 0.00 0.00 56 1017.0
20260507163307 46 240 5.2 0.0 0.00 0.00 0.00 49 1017.0
20260507160308 44 190 7.0 0.0 0.00 0.00 0.00 52 1017.0
20260507153308 46 0 5.2 0.0 0.00 0.00 0.00 52 1017.0
20260507150308 42 260 5.2 0.0 0.00 0.00 0.00 65 1017.0
20260507143307 44 0 10.4 0.0 0.00 0.00 0.00 56 1017.0
20260507140308 42 220 6.1 0.0 0.00 0.00 0.00 60 1017.0
20260507133307 42 190 8.7 0.0 0.00 0.00 0.00 60 1017.0
20260507130307 42 210 7.0 0.0 0.00 0.00 0.00 60 1016.0
20260507123308 42 260 6.1 0.0 0.00 0.00 0.00 65 1016.0
20260507120307 42 230 8.7 0.0 0.00 0.00 0.00 56 1016.0
20260507113308 44 190 6.1 0.0 0.00 0.00 0.00 56 1016.0
20260507110307 42 190 7.0 0.0 0.00 0.00 0.00 56 1015.0
20260507103307 42 220 7.8 0.0 0.00 0.00 0.00 56 1015.0
20260507100308 42 210 8.7 0.0 0.00 0.00 0.00 56 1015.0
20260507093307 42 210 7.8 0.0 0.00 0.00 0.00 56 1015.0